TimeCST,TemperatureF,Dew PointF,Humidity,Sea Level PressureIn,VisibilityMPH,Wind Direction,Wind SpeedMPH,Gust SpeedMPH,PrecipitationIn,Events,Conditions,WindDirDegrees,DateUTC
12:53 AM,46.0,30.9,56,30.28,10.0,SSE,4.6,-,N/A,,Clear,150,2012-11-18 06:53:00
1:53 AM,45.0,32.0,60,30.29,10.0,Calm,Calm,-,N/A,,Clear,0,2012-11-18 07:53:00
2:53 AM,42.1,32.0,67,30.27,10.0,ESE,4.6,-,N/A,,Clear,120,2012-11-18 08:53:00
3:53 AM,41.0,33.1,73,30.27,10.0,SE,5.8,-,N/A,,Clear,140,2012-11-18 09:53:00
4:53 AM,39.9,33.1,77,30.27,10.0,SSE,4.6,-,N/A,,Clear,150,2012-11-18 10:53:00
5:53 AM,39.9,33.1,77,30.27,10.0,South,3.5,-,N/A,,Clear,170,2012-11-18 11:53:00
6:53 AM,42.1,34.0,73,30.29,10.0,SE,3.5,-,N/A,,Clear,140,2012-11-18 12:53:00
7:53 AM,45.0,35.1,68,30.30,10.0,SSE,5.8,-,N/A,,Clear,160,2012-11-18 13:53:00
8:53 AM,53.1,36.0,52,30.30,10.0,Variable,6.9,-,N/A,,Clear,0,2012-11-18 14:53:00
9:53 AM,55.0,37.9,53,30.31,10.0,Variable,3.5,-,N/A,,Clear,0,2012-11-18 15:53:00
10:53 AM,57.0,37.9,49,30.30,10.0,SSE,8.1,-,N/A,,Clear,160,2012-11-18 16:53:00
11:53 AM,62.1,39.0,43,30.28,10.0,Variable,4.6,-,N/A,,Partly Cloudy,0,2012-11-18 17:53:00
12:53 PM,64.0,37.9,38,30.24,10.0,SSE,10.4,-,N/A,,Mostly Cloudy,150,2012-11-18 18:53:00
1:53 PM,66.9,37.0,33,30.21,10.0,SSE,9.2,-,N/A,,Clear,150,2012-11-18 19:53:00
2:53 PM,69.1,35.1,29,30.19,10.0,SSE,13.8,21.9,N/A,,Clear,150,2012-11-18 20:53:00
3:53 PM,66.9,34.0,30,30.19,10.0,SSE,9.2,-,N/A,,Partly Cloudy,150,2012-11-18 21:53:00
4:53 PM,66.0,33.1,29,30.19,10.0,SE,8.1,-,N/A,,Clear,140,2012-11-18 22:53:00
5:53 PM,64.0,34.0,33,30.19,10.0,SE,8.1,-,N/A,,Clear,140,2012-11-18 23:53:00
6:53 PM,63.0,34.0,34,30.21,10.0,SE,9.2,-,N/A,,Clear,140,2012-11-19 00:53:00
7:53 PM,61.0,35.1,38,30.21,10.0,SE,8.1,-,N/A,,Clear,140,2012-11-19 01:53:00
8:53 PM,61.0,35.1,38,30.21,10.0,SSE,6.9,-,N/A,,Clear,160,2012-11-19 02:53:00
9:53 PM,59.0,35.1,41,30.21,10.0,SSE,5.8,-,N/A,,Clear,150,2012-11-19 03:53:00
11:53 PM,55.9,36.0,47,30.21,10.0,SSE,4.6,-,N/A,,Clear,160,2012-11-19 05:53:00